MMS 4 (40485 NORAD) Tracking and Keplerian Element Data

This shows tracking and keplerian element data for the satellite.

Feedback or suggestion? Click here.




ElementValue
Catalog40485
NameMMS 4
Epoch Orbit904
Epoch Day197.70833333
Epoch Year2018
RAAN315.1341
Inclination8.112
Eccentricity0.9088211
Argument of Perigee164.2268
Mean Anonmoly266.9473
Mean Motion0.35513464
Decay Rate-1.269E-05
L11 40485U 15011D 18197.70833333 -.00001269 00000-0 00000+0 0 9993
L22 40485 8.1120 315.1341 9088211 164.2268 266.9473 0.35513464 9042

Live tracking and technical data element details for MMS 4 (NORAD 40485). MMS 4 can be tracked NOW for your location showing map with azimuth and elevation plus other details from your city location.

Track the satellite on the map from your city or location and see movement details for azimuth, elevation, latitude, longitude, range, height, and movement on the map or in text.







IsCatalogInMostPopularTable: catalog: 40485, numindb: 58
Update: records affected: 1



GetName: 40485 MMS 4

Hit Count: updated at: Mon, 23 Jul 2018 07:26:25 GMT